NOAA 16 DEB, 41360

Orbit data source: Space-Track

NOAA 16 DEB, 41360 is space debris in SSO originally from a launch on Thu, 21 Sep 2000 UTC launched from the Air Force Western Test Range (AFWTR). Debris objects in space refer to the collection of defunct objects orbiting the Earth. Examples of debris include non-operational satellites, rocket bodies, and fragments generated from explosions, collisions, or faulty payload assembly.

Loading next visibility...
Identifier
41360, 2000-055JD
Orbit
SSO
Country
Flag of USUS
Related business
Manufacturer
Unknown
Mission
Spacecraft
Bus & Motor
Unknown
Mass
Unknown
Launch date (UTC)
2000-09-21 (25 years ago)
Launch vehicle
Unknown
Launch site
Air Force Western Test Range (AFWTR)
Object type
Payload
Rocket body
Debris
Shape & HBR
Unknown
Radar Cross Section
Small (<0.1 m²)

Expand to show TLE details & history
Last TLE update: 4 days ago

TLE from 4 days ago
0 NOAA 16 DEB
1 41360U 00055JD  25257.28734871  .00003310  00000-0  12989-2 0  9993
2 41360  98.8833  12.0947 0024301  99.9573 260.4353 14.29893543497753
Epoch: 2025-09-14T06:53Z
TLE epoch observation values (Epoch: 2025-09-14T06:53:46.928Z)
Latitude
Longitude
-84.85935°
Altitude
797.946 km
Speed
7.453 km/s
True Right ascension
00h 48m 22s
True Declination
0° 00' 00"
Sunlit
Object was in full shadow at epoch
Visualization orbit readout
Latitude
Unknown
Longitude
Unknown
Altitude
Unknown
Speed
Unknown
Apparent Right ascension
Unknown
Apparent Declination
Unknown
Sunlit
N/A
Visualization observer readout
Local Sidereal Time
15:04:35
Azimuth
Unknown
Elevation
Unknown
Doppler factor
Unknown
Orbital elements
Apogee altitude
806.658 km
Perigee altitude
771.823 km
Semi-major axis
7,167.377 km
Eccentricity
0.00243
Inclination
98.8833°
RAAN
12.0947°
Arg. of periapsis
99.9573°
True anomaly
260.16084°
Mean anomaly
260.4353°
Eccentric anomaly
260.29806°
Mean motion
3.57687 °/min
Orbital period
100.65 mins
BSTAR
0.0012989
Loading maneuver chart data...
Computing Atmospheric mass density...
Loading historical data...
Loading historical data...
Loading historical data...
Loading historical data...
Loading historical data...
Loading historical data...
Loading historical data...

Documentation

Showing up to 5 results
|